Total_Precipitation_Accumulation
0.12 0.14 0.18 0.17 0.17 0.19 0.21 0.20 0.20 0.19 0.18 0.17 0.17 0.16 0.18 0.22 0.16 0.09 0.06 0.07 0.19 0.20 0.08 0.01 0.02 0.04 0.24 0.34 0.65 1.10 1.00 0.52 0.36 0.14 0.05 0.09 0.12 0.09 0.07 0.07 0.09 0.13 0.08 0.25 0.49
0.10 0.14 0.18 0.16 0.18 0.20 0.20 0.18 0.16 0.17 0.18 0.20 0.23 0.26 0.33 0.31 0.09 0.06 0.10 0.14 0.10 0.14 0.02 0.02 0.02 0.06 0.18 0.27 0.66 1.14 0.68 0.15 0.11 0.27 0.21 0.23 0.25 0.20 0.18 0.15 0.15 0.14 0.19 0.52 0.68
0.13 0.15 0.15 0.17 0.20 0.20 0.19 0.19 0.18 0.17 0.16 0.20 0.26 0.39 0.51 0.22 0.05 0.07 0.11 0.07 0.14 0.07 0.02 0.01 0.04 0.16 0.17 0.26 0.42 0.56 0.39 0.09 0.05 0.13 0.44 0.50 0.43 0.31 0.36 0.27 0.21 0.22 0.44 0.62 0.91
0.18 0.19 0.16 0.18 0.23 0.21 0.20 0.18 0.19 0.21 0.22 0.22 0.31 0.47 0.39 0.19 0.07 0.03 0.12 0.07 0.06 0.03 0.04 0.04 0.11 0.23 0.20 0.20 0.21 0.39 0.10 0.15 0.10 0.13 0.31 0.57 0.68 0.42 0.42 0.32 0.20 0.29 0.59 0.88 1.11
0.21 0.23 0.26 0.28 0.26 0.23 0.18 0.17 0.18 0.23 0.25 0.25 0.36 0.52 0.39 0.19 0.05 0.00 0.00 0.02 0.03 0.05 0.07 0.08 0.13 0.19 0.29 0.17 0.23 0.29 0.13 0.24 0.24 0.28 0.33 0.46 0.55 0.74 0.52 0.36 0.29 0.32 0.47 0.93 1.19
0.28 0.33 0.33 0.34 0.34 0.29 0.22 0.25 0.27 0.28 0.26 0.26 0.44 0.51 0.42 0.18 0.00 0.00 0.00 0.00 0.01 0.05 0.14 0.18 0.17 0.20 0.30 0.23 0.31 0.19 0.15 0.18 0.26 0.43 0.47 0.63 0.50 0.77 0.66 0.56 0.31 0.30 0.32 0.80 1.09
0.28 0.33 0.42 0.39 0.31 0.32 0.39 0.39 0.34 0.27 0.28 0.37 0.51 0.48 0.41 0.08 0.00 0.00 0.01 0.04 0.04 0.07 0.07 0.19 0.29 0.39 0.33 0.31 0.20 0.19 0.32 0.33 0.23 0.35 0.52 0.82 0.76 0.62 0.55 0.94 0.58 0.19 0.25 0.65 1.10
0.31 0.35 0.38 0.37 0.46 0.47 0.38 0.32 0.40 0.42 0.42 0.43 0.37 0.52 0.35 0.00 0.00 0.00 0.00 0.03 0.08 0.13 0.15 0.22 0.43 0.39 0.35 0.31 0.19 0.30 0.62 0.54 0.27 0.35 0.66 1.29 1.05 0.22 0.46 1.12 0.85 0.19 0.24 0.48 0.66
0.43 0.40 0.37 0.38 0.40 0.46 0.45 0.45 0.41 0.38 0.45 0.44 0.46 0.56 0.21 0.00 0.00 0.00 0.00 0.00 0.05 0.16 0.21 0.31 0.52 0.52 0.46 0.49 0.53 0.53 0.42 0.17 0.17 0.25 0.70 1.13 0.89 0.38 0.42 1.06 1.12 0.48 0.24 0.44 0.66
0.46 0.46 0.44 0.43 0.50 0.68 0.72 0.61 0.47 0.45 0.32 0.45 0.75 0.93 0.18 0.00 0.00 0.00 0.00 0.01 0.03 0.17 0.39 0.41 0.59 0.70 0.70 0.88 0.65 0.24 0.20 0.13 0.19 0.17 0.41 0.63 0.61 0.42 0.50 0.98 1.39 0.90 0.44 0.86 1.35
0.49 0.54 0.56 0.63 0.66 0.88 1.05 0.93 0.96 0.84 0.72 0.36 0.31 0.26 0.06 0.03 0.05 0.02 0.01 0.02 0.05 0.20 0.19 0.30 0.58 0.58 0.35 0.42 0.21 0.15 0.21 0.21 0.08 0.18 0.39 0.46 0.39 0.61 0.58 1.07 1.36 1.17 0.77 1.09 1.42
0.63 0.68 0.87 0.98 0.92 0.94 1.00 0.85 0.67 1.04 0.68 0.18 0.12 0.10 0.05 0.04 0.12 0.09 0.11 0.17 0.11 0.09 0.15 0.43 0.41 0.04 0.07 0.26 0.38 0.28 0.24 0.13 0.11 0.05 0.28 0.36 0.38 0.67 0.74 1.26 1.48 1.58 1.36 1.15 1.12
0.94 0.99 1.16 1.26 1.34 1.08 0.74 0.57 0.52 0.82 1.22 0.27 0.07 0.05 0.01 0.08 0.11 0.12 0.16 0.33 0.17 0.11 0.14 0.20 0.13 0.04 0.10 0.38 0.61 0.48 0.35 0.13 0.09 0.08 0.22 0.32 0.65 0.84 0.78 1.11 0.80 1.03 1.49 1.71 1.41
1.11 1.18 1.39 1.48 1.49 0.87 0.85 0.78 0.78 1.41 2.41 0.48 0.04 0.06 0.01 0.09 0.16 0.06 0.13 0.40 0.56 0.14 0.14 0.22 0.07 0.15 0.19 0.23 0.45 0.61 0.23 0.21 0.16 0.47 0.70 0.39 1.02 0.45 0.46 0.66 0.24 0.46 0.91 1.66 1.22
1.48 1.55 1.77 2.09 1.46 1.35 1.05 1.08 1.55 2.55 3.58 0.38 0.07 0.04 0.03 0.15 0.13 0.08 0.18 0.52 0.67 0.45 0.29 0.19 0.04 0.25 0.32 0.17 0.24 0.37 0.24 0.27 0.34 0.72 0.72 0.56 1.14 0.31 0.22 0.28 0.19 0.37 0.65 1.13 1.63
1.83 2.35 2.21 2.22 2.19 1.29 1.09 1.87 2.73 4.20 3.15 0.34 0.17 0.12 0.18 0.16 0.06 0.25 0.47 0.72 0.78 0.83 0.66 0.20 0.07 0.15 0.20 0.10 0.16 0.33 0.82 0.64 0.86 1.20 2.20 0.81 0.66 0.27 0.34 0.37 0.22 0.47 0.59 0.65 1.43
2.37 2.61 2.87 2.30 2.00 1.60 2.26 3.62 4.85 3.74 0.88 0.46 0.25 0.25 0.29 0.26 0.18 0.31 1.12 1.24 1.05 1.47 1.24 0.54 0.16 0.04 0.18 0.29 0.49 0.94 1.51 2.48 2.50 2.68 2.09 0.46 0.42 0.44 0.27 0.23 0.47 0.69 0.75 0.81 1.30
2.29 2.47 2.02 1.81 1.65 2.36 3.65 4.94 5.19 1.13 0.35 0.27 0.20 0.27 0.35 0.40 0.35 0.20 0.51 0.94 0.95 1.02 1.32 0.74 0.39 0.10 0.17 0.23 0.47 0.98 1.50 1.95 1.47 1.11 0.58 0.33 0.59 0.30 0.15 0.19 0.48 0.67 0.80 0.80 0.79
2.36 2.15 2.17 1.71 1.60 2.74 4.62 5.58 2.37 0.58 0.33 0.26 0.24 0.47 0.46 0.67 0.91 0.61 0.31 0.56 0.94 1.26 1.71 1.39 0.35 0.08 0.04 0.04 0.20 0.62 1.21 1.04 0.94 0.49 0.51 0.32 0.21 0.18 0.07 0.07 0.17 0.37 0.69 0.88 0.81
2.77 2.74 2.59 1.97 2.42 3.46 4.90 3.44 0.85 0.26 0.37 0.40 0.69 0.57 0.61 0.61 1.02 1.22 0.83 0.60 0.73 0.97 1.53 1.70 1.33 0.19 0.22 0.26 0.25 0.41 0.51 1.04 1.70 1.71 0.87 0.22 0.16 0.19 0.16 0.17 0.13 0.30 0.62 0.96 0.80
3.57 3.84 2.32 2.37 3.63 4.79 4.51 1.48 0.32 0.16 0.42 0.88 0.60 0.66 0.51 0.80 0.98 1.20 1.42 0.67 0.67 0.64 0.96 2.02 1.91 0.79 0.47 0.52 0.33 0.49 1.08 0.96 1.36 1.13 0.97 0.50 0.26 0.43 0.47 0.46 0.37 0.48 0.73 1.23 1.21
4.10 3.85 2.17 2.71 4.69 4.37 1.97 0.59 0.32 0.25 0.52 0.77 0.79 0.60 0.56 0.62 1.27 1.29 0.92 1.03 0.68 0.64 0.81 1.19 2.20 1.36 0.53 0.41 0.32 0.31 0.74 1.01 1.35 1.20 0.80 0.76 0.42 0.39 0.44 0.47 0.44 0.62 0.70 1.23 1.45
4.79 3.06 2.99 3.16 3.75 2.27 0.97 0.55 0.63 0.43 0.62 0.86 0.65 0.61 0.51 0.53 1.28 0.79 0.80 0.59 0.78 0.92 1.27 1.33 2.15 1.95 1.44 1.38 0.68 0.66 0.37 0.62 0.74 0.87 0.79 0.81 0.40 0.21 0.31 0.36 0.39 0.74 0.67 1.17 1.37
5.57 4.05 3.91 4.33 2.48 1.16 1.09 0.96 0.76 0.43 0.54 0.54 0.49 0.52 0.69 0.51 0.69 0.84 0.54 0.47 0.49 0.94 1.16 1.33 1.56 1.37 1.10 1.47 1.41 1.12 0.81 0.52 0.71 0.80 0.71 0.53 0.25 0.18 0.18 0.27 0.31 0.53 0.83 1.23 1.40
5.92 3.60 2.27 2.85 1.99 1.25 1.69 1.40 0.51 0.63 0.73 0.71 0.63 0.48 0.85 1.13 0.69 0.63 0.57 0.63 0.61 0.87 1.28 1.77 1.49 0.84 0.25 0.23 0.51 0.60 0.74 0.67 0.75 0.52 0.65 0.38 0.31 0.24 0.33 0.37 0.48 0.67 0.85 1.03 1.15
5.21 2.59 2.00 1.43 0.91 1.58 2.13 1.42 0.56 0.88 1.02 0.68 0.72 0.41 0.60 0.77 0.80 0.88 1.05 1.03 1.09 1.14 1.75 1.88 1.60 0.69 0.43 0.19 0.30 0.35 0.37 0.55 0.63 0.33 0.21 0.23 0.28 0.21 0.25 0.28 0.48 0.73 0.88 0.97 0.97
3.52 2.21 2.81 2.85 1.62 1.90 1.64 1.01 0.94 1.10 0.93 0.33 0.40 0.78 0.55 0.41 0.43 0.71 1.01 1.06 1.15 1.37 1.61 1.74 1.55 0.90 0.82 0.38 0.82 0.94 0.69 0.50 0.49 0.48 0.30 0.31 0.27 0.12 0.16 0.24 0.70 0.85 0.95 1.01 0.99